The following orbital elements are taken from MPC 58780:
Epoch 2006 Apr. 15.0 TT = JDT 2453840.5
T 2006 Mar. 29.5695 TT MPC
q 1.700293 (2000.0) P Q
n 0.0708434 Peri. 230.5708 +0.8906528 -0.4317620
a 5.784550 Node 154.0495 +0.4475548 +0.8877901
e 0.706063 Incl. 19.0109 -0.0802020 +0.1594058
P 13.9
From 103 observations 2006 Nov. 16-2007 Jan. 25, mean residual 0".7.